Regional Weather Roundup
Issued by NWS

Home | Current Version | Previous Version | Graphics & Text | Print | Product List | Glossary On
Versions: 1 2 3 4 5 6 7 8 9 10 11 12 13 14 15 16 17 18 19 20 21 22 23 24 25 26 27 28 29 30 31 32 33 34 35 36 37 38 39 40 41 42 43 44 45 46 47 48 49 50
000
ASUS43 KLSX 152059
RWRMO

WEATHER SUMMARY FOR MISSOURI
NATIONAL WEATHER SERVICE SPRINGFIELD MO
400 PM CDT TUE APR 15 2014

NOTE: "FAIR" INDICATES FEW OR NO CLOUDS BELOW 12,000 FEET WITH NO
       SIGNIFICANT WEATHER AND/OR OBSTRUCTIONS TO VISIBILITY.
       CURRENT SKY AND/OR WEATHER CONDITIONS ARE NOT AVAILABLE FOR
       CHILLICOTHE AND FARMINGTON.

MOZ001>031-035>038-043-044-053-054-152200-
...NORTHERN AND WESTERN MISSOURI...

CITY           SKY/WX    TMP DP  RH WIND       PRES   REMARKS
KANSAS CTY INT MOSUNNY   51  22  31 CALM      30.10F
KANSAS C DTWN  SUNNY     55  23  28 SW9       30.11F
LEE`S SUMMIT   MOSUNNY   52  25  35 W12       30.12F
ST JOSEPH      SUNNY     52  24  33 SW7       30.10F
CHILLICOTHE      N/A     49  21  33 VRB3      30.14F
KIRKSVILLE     SUNNY     47  14  26 VRB5      30.14F

$$
MOZ066>068-077>081-088>096-101>105-152200-
...SOUTHWEST MISSOURI...

CITY           SKY/WX    TMP DP  RH WIND       PRES   REMARKS
SPRINGFIELD    SUNNY     51  21  30 CALM      30.15F
JOPLIN         SUNNY     56  26  31 NW6       30.15F

$$
MOZ032>034-039>042-045>050-055>058-069>072-152200-
...CENTRAL MISSOURI...

CITY           SKY/WX    TMP DP  RH WIND       PRES   REMARKS
COLUMBIA       MOSUNNY   47  21  35 VRB5      30.17F
JEFFERSON CITY MOSUNNY   48  21  34 W9        30.18F
ROLLA          SUNNY     47  22  37 NW5       30.15F
SEDALIA        SUNNY     50  25  37 SW8       30.16F
OSAGE BEACH    SUNNY     48  19  32 SW5       30.18F

$$
MOZ051-052-059>065-152200-
...EAST CENTRAL MISSOURI...

CITY           SKY/WX    TMP DP  RH WIND       PRES   REMARKS
ST LOUIS INTL  MOSUNNY   48  19  31 W9        30.20F
SPIRIT OF STL  MOSUNNY   47  16  29 VRB5      30.19F
ST CHARLES     MOSUNNY   47  20  34 MISG      30.19F

$$
MOZ072>076-082>087-097>100-106>115-152200-
...SOUTH CENTRAL AND SOUTHEAST MISSOURI...

CITY           SKY/WX    TMP DP  RH WIND       PRES   REMARKS
CAPE GIRARDEAU SUNNY     50  22  33 N13G20    30.21F
FARMINGTON     SUNNY     46  18  31 N6        30.19F
POPLAR BLUFF   SUNNY     53  16  23 MISG      30.17F
WEST PLAINS    SUNNY     51  22  31 N9G20     30.16F

$$



USA.gov is the U.S. government's official web portal to all federal, state and local government web resources and services.